Regional Weather Roundup
Issued by NWS

Home | Current Version | Previous Version | Graphics & Text | Print | Product List | Glossary On
Versions: 1 2 3 4 5 6 7 8 9 10 11 12 13 14 15 16 17 18 19 20 21 22 23 24 25 26 27 28 29 30 31 32 33 34 35 36 37 38 39 40 41 42 43 44 45 46 47 48 49 50
000
ASUS44 KMEG 200310
RWRTN
TENNESSEE HOURLY STATE WEATHER ROUNDUP
NATIONAL WEATHER SERVICE MEMPHIS TN
900 PM CST THU JAN 19 2017

TNZ002-004-019-021-049-052-054-088>092-200400-
WEST TENNESSEE

CITY           SKY/WX    TMP DP  RH WIND       PRES   REMARKS
MEMPHIS INTL   CLOUDY    59  58  96 W7        29.73R
NWS MEMPHIS      N/A     56 N/A N/A MISG        N/A
JACKSON        CLOUDY    58  57  97 S8        29.71F
DYERSBURG      CLOUDY    57  54  88 W6        29.70R
UNION CITY     CLOUDY   N/A N/A N/A S12       29.66S
PARIS          MOCLDY    55  55 100 S6        29.69F
HUNTINGDON     CLOUDY    59  57  94 S5        29.69F
$$

TNZ008-025-027-028-033-062-065-066-200400-
NORTH MIDDLE TENNESSEE

CITY           SKY/WX    TMP DP  RH WIND       PRES   REMARKS
NASHVILLE      RAIN      59  57  93 CALM      29.71S FOG
PORTLAND       CLOUDY    59  59 100 NW5       29.69S FOG
CLARKSVILLE    LGT RAIN  55  53  93 CALM      29.70F VSB 1/2
SMYRNA         RAIN      59  57  94 W6        29.72S FOG
GALLATIN       CLOUDY    59  59 100 SE9       29.71F FOG
CROSSVILLE     LGT RAIN  50  49  96 SE7       29.82F FOG
$$

TNZ061-075-076-078-094-096-097-200400-
SOUTH MIDDLE TENNESSEE

CITY           SKY/WX    TMP DP  RH WIND       PRES   REMARKS
TULLAHOMA      CLOUDY    57  57 100 SE8       29.76F
WINCHESTER     MOCLDY    61  57  88 SE12      29.77F
MCMINNVILLE    CLOUDY    57  57 100 SE8       29.75F
COLUMBIA       CLOUDY   N/A N/A N/A S5        29.72S
SHELBYVILLE    CLOUDY    63  61  94 S12       29.72F
$$

TNZ017-018-042-046-047-200400-
NORTHEAST TENNESSEE

CITY           SKY/WX    TMP DP  RH WIND       PRES   REMARKS
TRI CITIES     CLOUDY    51  43  74 CALM      29.88F
ELIZABETHTON   CLOUDY    54  45  71 CALM      29.89S
$$

TNZ012-013-036-069-073-074-200400-
CENTRAL EAST TENNESSEE

CITY           SKY/WX    TMP DP  RH WIND       PRES   REMARKS
KNOXVILLE      CLOUDY    54  46  74 NE7       29.81F
OAK RIDGE      CLOUDY    52  47  83 CALM      29.84F
GATLINBURG     CLEAR     50  46  87 CALM      29.84F
MORRISTOWN     CLOUDY    54  45  71 E3        29.84F
JACKSBORO      CLOUDY    50  50 100 CALM      29.88F FOG
$$

TNZ083-085-099-200400-
SOUTHEAST TENNESSEE

CITY           SKY/WX    TMP DP  RH WIND       PRES   REMARKS
CHATTANOOGA    HVY RAIN  52  51  97 CALM      29.85F FOG
$$

SKY/WX REPORTED AS FAIR MEANS FEW OR NO CLOUDS BELOW
12 THOUSAND FEET.





USA.gov is the U.S. government's official web portal to all federal, state and local government web resources and services.